Location: 5810 Zion Rd, Cleves, OH 45002, USA
(39.1922°N, 84.7113°W)
Time: 10:15:43
(UTC-05:00)

Vanguard 2 - Visible Passes

Search period start: 15 December 2019 00:00
Search period end: 25 December 2019 00:00
Orbit: 553 x 2938 km, 32.9° (Epoch: 14 December)

Date Brightness Start Highest point End Pass type
(mag) Time Alt. Az. Time Alt. Az. Time Alt. Az.
15 Dec 11.0 02:18:16 38° ESE 02:18:16 38° ESE 02:27:35 10° E visible
15 Dec 10.2 04:19:40 62° SW 04:22:22 67° SSW 04:39:12 10° ESE visible
15 Dec 10.7 06:21:04 17° W 06:34:10 44° SSW 06:48:00 10° SE visible
16 Dec 10.8 02:35:03 44° ESE 02:35:03 44° ESE 02:45:42 10° E visible
16 Dec 10.3 04:36:27 54° WSW 04:40:24 62° SSW 04:56:58 10° ESE visible
16 Dec 10.9 06:37:51 13° W 06:51:44 37° SW 07:04:56 10° SSE visible
17 Dec 11.9 00:50:27 11° E 00:50:27 11° E 00:50:50 10° E visible
17 Dec 10.6 02:51:51 50° ESE 02:51:51 50° ESE 03:03:47 10° ESE visible
17 Dec 10.4 04:53:15 46° WSW 04:58:20 56° SSW 05:14:34 10° SE visible
17 Dec 11.1 06:55:15 10° W 07:09:12 30° SW 07:21:27 10° SSE visible
18 Dec 11.8 01:07:17 14° E 01:07:17 14° E 01:09:04 10° E visible
18 Dec 10.5 03:08:41 54° SE 03:08:41 54° SE 03:21:47 10° ESE visible
18 Dec 10.5 05:10:05 39° WSW 05:16:11 50° SSW 05:31:58 10° SE visible
18 Dec 11.3 07:14:33 10° W 07:26:36 23° SW 07:37:25 10° S visible
19 Dec 11.6 01:24:08 18° E 01:24:08 18° E 01:27:15 10° E visible
19 Dec 10.4 03:25:32 57° SSE 03:25:32 57° SSE 03:39:41 10° ESE visible
19 Dec 10.7 05:26:57 32° WSW 05:33:55 42° SSW 05:49:05 10° SSE visible
20 Dec 11.5 01:41:01 21° ESE 01:41:01 21° ESE 01:45:25 10° E visible
20 Dec 10.4 03:42:25 56° S 03:42:25 56° S 03:57:25 10° SE visible
20 Dec 10.9 05:43:50 25° WSW 05:51:34 35° SW 06:05:52 10° SSE visible
21 Dec 11.4 01:57:55 25° ESE 01:57:55 25° ESE 02:03:31 10° ESE visible
21 Dec 10.4 03:59:19 52° S 03:59:19 52° S 04:14:57 10° SE visible
21 Dec 11.1 06:00:45 19° WSW 06:09:08 28° SW 06:22:12 10° S visible
22 Dec 11.2 02:14:51 28° ESE 02:14:51 28° ESE 02:21:31 10° ESE visible
22 Dec 10.5 04:16:16 46° SSW 04:16:16 46° SSW 04:32:16 10° SE visible
22 Dec 11.3 06:17:40 14° WSW 06:26:40 21° SW 06:37:50 10° S visible
23 Dec 11.1 02:31:48 31° SE 02:31:48 31° SE 02:39:23 10° ESE visible
23 Dec 10.6 04:33:13 39° SSW 04:33:43 39° SSW 04:49:15 10° SSE visible
23 Dec 11.5 06:36:07 10° WSW 06:44:10 15° SW 06:52:11 10° SSW visible
23 Dec 10.3 20:07:15 10° S 20:07:33 11° S 20:07:33 11° S visible
24 Dec 11.1 02:48:46 32° SE 02:48:46 32° SE 02:57:05 10° SE visible
24 Dec 10.8 04:50:11 31° SW 04:51:27 32° SW 05:05:50 10° SSE visible
24 Dec 10.1 20:23:38 10° SSW 20:24:34 14° S 20:24:34 14° S visible
